When you browse on this site, cookies collect data to enhance your experience and personalize the content and advertising you see.
Visit our Privacy Policy to learn more. By continuing to use the site, you agree to this use of cookies and data.

Stündliche Wetter Halochi

Heute, 10 Juli, Freitag

Zeit Temperatur Niederschläge Wind Luftdruck Luftfeuchtigkeit
00:00 +20°C° 0 mm 1 m/S 751 mmHg 61%
01:00 +20°C° 0 mm 1 m/S 751 mmHg 63%
02:00 +19°C° 0 mm 1 m/S 751 mmHg 65%
03:00 +19°C° 0 mm 1 m/S 751 mmHg 65%
04:00 +19°C° 0 mm 1 m/S 751 mmHg 66%
05:00 +20°C° 0 mm 1 m/S 751 mmHg 66%
06:00 +21°C° 0 mm 1 m/S 751 mmHg 62%
07:00 +23°C° 0 mm 2 m/S 752 mmHg 58%
08:00 +25°C° 0 mm 2 m/S 752 mmHg 54%
09:00 +26°C° 0 mm 2 m/S 752 mmHg 50%
10:00 +27°C° 0 mm 3 m/S 752 mmHg 47%
11:00 +28°C° 0 mm 3 m/S 752 mmHg 43%
12:00 +29°C° 0 mm 3 m/S 752 mmHg 43%
13:00 +29°C° 0 mm 3 m/S 751 mmHg 42%
14:00 +30°C° 0 mm 3 m/S 751 mmHg 41%
15:00 +30°C° 0 mm 3 m/S 751 mmHg 43%
16:00 +30°C° 0 mm 2 m/S 751 mmHg 44%
17:00 +29°C° 0 mm 2 m/S 751 mmHg 46%
18:00 +28°C° 0 mm 2 m/S 751 mmHg 49%
19:00 +26°C° 0 mm 2 m/S 751 mmHg 52%
20:00 +25°C° 0 mm 2 m/S 751 mmHg 56%
21:00 +24°C° 0 mm 2 m/S 751 mmHg 56%
22:00 +21°C° 0 mm 3 m/S 751 mmHg 56%
23:00 +20°C° 0 mm 3 m/S 751 mmHg 56%

Morgen, 11 Juli, Samstag

Zeit Temperatur Niederschläge Wind Luftdruck Luftfeuchtigkeit
00:00 +20°C° 0 mm 3 m/S 751 mmHg 56%
01:00 +20°C° 0 mm 2 m/S 751 mmHg 56%
02:00 +19°C° 0 mm 2 m/S 751 mmHg 56%
03:00 +19°C° 0 mm 2 m/S 751 mmHg 57%
04:00 +20°C° 0 mm 1 m/S 751 mmHg 58%
05:00 +20°C° 0 mm 1 m/S 751 mmHg 60%
06:00 +22°C° 0 mm 1 m/S 751 mmHg 57%
07:00 +24°C° 0 mm 2 m/S 751 mmHg 54%
08:00 +25°C° 0 mm 3 m/S 751 mmHg 51%
09:00 +27°C° 0 mm 3 m/S 751 mmHg 47%
10:00 +28°C° 0 mm 3 m/S 751 mmHg 44%
11:00 +29°C° 0 mm 3 m/S 751 mmHg 41%
12:00 +30°C° 0 mm 3 m/S 751 mmHg 40%
13:00 +31°C° 0 mm 3 m/S 750 mmHg 39%
14:00 +31°C° 0 mm 3 m/S 750 mmHg 38%
15:00 +31°C° 0 mm 3 m/S 750 mmHg 40%
16:00 +31°C° 0 mm 3 m/S 749 mmHg 41%
17:00 +31°C° 0 mm 3 m/S 749 mmHg 43%
18:00 +29°C° 0 mm 2 m/S 749 mmHg 48%
19:00 +27°C° 0 mm 2 m/S 749 mmHg 52%
20:00 +25°C° 0 mm 1 m/S 748 mmHg 57%
21:00 +24°C° 0 mm 1 m/S 748 mmHg 59%
22:00 +23°C° 0 mm 1 m/S 748 mmHg 61%
23:00 +23°C° 0 mm 1 m/S 748 mmHg 63%

übermorgen, 12 Juli, Sonntag

Zeit Temperatur Niederschläge Wind Luftdruck Luftfeuchtigkeit
00:00 +22°C° 0 mm 1 m/S 748 mmHg 63%
01:00 +22°C° 0 mm 1 m/S 748 mmHg 63%
02:00 +21°C° 0 mm 1 m/S 748 mmHg 64%
03:00 +21°C° 0 mm 1 m/S 747 mmHg 65%
04:00 +21°C° 0 mm 1 m/S 747 mmHg 66%
05:00 +20°C° 0 mm 1 m/S 747 mmHg 67%
06:00 +22°C° 0 mm 1 m/S 747 mmHg 63%
07:00 +24°C° 0 mm 1 m/S 747 mmHg 58%
08:00 +26°C° 0 mm 1 m/S 748 mmHg 53%
09:00 +27°C° 0 mm 1 m/S 748 mmHg 49%
10:00 +29°C° 0 mm 1 m/S 747 mmHg 46%
11:00 +30°C° 0 mm 1 m/S 747 mmHg 42%
12:00 +30°C° 0 mm 1 m/S 747 mmHg 41%
13:00 +31°C° 0 mm 1 m/S 747 mmHg 40%
14:00 +31°C° 0 mm 1 m/S 746 mmHg 39%
15:00 +30°C° 0 mm 2 m/S 746 mmHg 42%
16:00 +30°C° 0 mm 2 m/S 746 mmHg 45%
17:00 +29°C° 0 mm 3 m/S 746 mmHg 49%
18:00 +27°C° 0 mm 4 m/S 746 mmHg 59%
19:00 +24°C° 0 mm 6 m/S 746 mmHg 69%
20:00 +21°C° 0 mm 7 m/S 746 mmHg 80%
21:00 +20°C° 0 mm 7 m/S 746 mmHg 82%
22:00 +18°C° 0 mm 8 m/S 747 mmHg 83%
23:00 +17°C° 0 mm 8 m/S 747 mmHg 85%

13 Juli, Montag

Zeit Temperatur Niederschläge Wind Luftdruck Luftfeuchtigkeit
00:00 +16°C° 0.4 mm 8 m/S 747 mmHg 87%
01:00 +15°C° 0.4 mm 8 m/S 747 mmHg 88%
02:00 +13°C° 0.4 mm 8 m/S 747 mmHg 89%
03:00 +13°C° 0.7 mm 8 m/S 747 mmHg 89%
04:00 +12°C° 0.7 mm 8 m/S 747 mmHg 89%
05:00 +12°C° 0.7 mm 8 m/S 747 mmHg 89%
06:00 +12°C° 0 mm 8 m/S 747 mmHg 87%
07:00 +12°C° 0 mm 8 m/S 747 mmHg 85%
08:00 +12°C° 0 mm 8 m/S 747 mmHg 83%
09:00 +13°C° 0 mm 8 m/S 747 mmHg 79%
10:00 +15°C° 0 mm 8 m/S 747 mmHg 75%
11:00 +15°C° 0 mm 8 m/S 747 mmHg 71%
12:00 +16°C° 0 mm 8 m/S 747 mmHg 67%
13:00 +17°C° 0 mm 8 m/S 747 mmHg 63%
14:00 +18°C° 0 mm 8 m/S 747 mmHg 59%
15:00 +20°C° 0 mm 8 m/S 747 mmHg 58%
16:00 +20°C° 0 mm 8 m/S 747 mmHg 58%
17:00 +20°C° 0 mm 7 m/S 746 mmHg 57%
18:00 +19°C° 0 mm 6 m/S 746 mmHg 61%
19:00 +17°C° 0 mm 5 m/S 747 mmHg 66%
20:00 +17°C° 0 mm 4 m/S 747 mmHg 71%
21:00 +15°C° 0 mm 4 m/S 747 mmHg 73%
22:00 +14°C° 0 mm 4 m/S 747 mmHg 75%
23:00 +14°C° 0 mm 4 m/S 747 mmHg 78%

14 Juli, Dienstag

Zeit Temperatur Niederschläge Wind Luftdruck Luftfeuchtigkeit
00:00 +13°C° 0 mm 4 m/S 747 mmHg 80%
01:00 +13°C° 0 mm 4 m/S 747 mmHg 83%
02:00 +12°C° 0 mm 4 m/S 747 mmHg 85%
03:00 +12°C° 0 mm 4 m/S 747 mmHg 86%
04:00 +12°C° 0 mm 4 m/S 747 mmHg 87%
05:00 +11°C° 0 mm 4 m/S 747 mmHg 88%
06:00 +13°C° 0 mm 5 m/S 747 mmHg 80%
07:00 +15°C° 0 mm 5 m/S 748 mmHg 73%
08:00 +17°C° 0 mm 6 m/S 748 mmHg 65%
09:00 +19°C° 0 mm 6 m/S 748 mmHg 60%
10:00 +20°C° 0 mm 6 m/S 748 mmHg 55%
11:00 +21°C° 0 mm 6 m/S 748 mmHg 50%
12:00 +22°C° 0 mm 5 m/S 748 mmHg 48%
13:00 +23°C° 0 mm 5 m/S 748 mmHg 47%
14:00 +23°C° 0 mm 5 m/S 748 mmHg 45%
15:00 +23°C° 0 mm 5 m/S 747 mmHg 46%
16:00 +23°C° 0 mm 5 m/S 747 mmHg 47%
17:00 +23°C° 0 mm 4 m/S 747 mmHg 48%
18:00 +22°C° 0 mm 4 m/S 747 mmHg 54%
19:00 +20°C° 0 mm 3 m/S 748 mmHg 60%
20:00 +19°C° 0 mm 2 m/S 748 mmHg 66%
21:00 +18°C° 0 mm 2 m/S 748 mmHg 69%
22:00 +18°C° 0 mm 1 m/S 748 mmHg 71%
23:00 +16°C° 0 mm 1 m/S 749 mmHg 74%

15 Juli, Mittwoch

Zeit Temperatur Niederschläge Wind Luftdruck Luftfeuchtigkeit
00:00 +15°C° 0 mm 1 m/S 749 mmHg 76%
01:00 +15°C° 0 mm 1 m/S 749 mmHg 78%
02:00 +15°C° 0 mm 1 m/S 749 mmHg 80%
03:00 +15°C° 0 mm 1 m/S 749 mmHg 82%
04:00 +14°C° 0 mm 1 m/S 749 mmHg 84%
05:00 +14°C° 0 mm 1 m/S 749 mmHg 86%
06:00 +16°C° 0 mm 2 m/S 749 mmHg 79%
07:00 +18°C° 0 mm 2 m/S 750 mmHg 73%
08:00 +20°C° 0 mm 2 m/S 750 mmHg 66%
09:00 +21°C° 0 mm 2 m/S 750 mmHg 60%
10:00 +24°C° 0 mm 2 m/S 750 mmHg 53%
11:00 +25°C° 0 mm 2 m/S 750 mmHg 47%
12:00 +26°C° 0 mm 2 m/S 750 mmHg 44%
13:00 +26°C° 0 mm 2 m/S 750 mmHg 41%
14:00 +27°C° 0 mm 2 m/S 750 mmHg 38%
15:00 +27°C° 0 mm 2 m/S 750 mmHg 39%
16:00 +27°C° 0 mm 2 m/S 749 mmHg 40%
17:00 +27°C° 0 mm 2 m/S 749 mmHg 41%
18:00 +25°C° 0 mm 2 m/S 749 mmHg 48%
19:00 +22°C° 0 mm 3 m/S 749 mmHg 55%
20:00 +20°C° 0 mm 3 m/S 749 mmHg 63%
21:00 +19°C° 0 mm 2 m/S 750 mmHg 64%
22:00 +18°C° 0 mm 2 m/S 750 mmHg 65%
23:00 +18°C° 0 mm 2 m/S 750 mmHg 66%
Mehr zeigen